Date String (YYYY-MM-DD hh:mm:ss) UTC,Instrument flags,absolute air pressure of the measurement (hPa),sample flow rate (lpm),inlet stack bypass flow (lpm),air temperature of the measurement (°C),ambient temperature measured by the external sensor (°C),aerosol sample conditioner tube jacket temperature (°C),OPC LED temperature (°C),internal box temperature (°C),relative humidity of the measurement (%),span deviation,mass concentration of particles derived from Lorenz-Mie calculation of OPC scattering (μg/m³),mass concentration of particles derived from Lorenz-Mie calculation of OPC scattering (μg/m³),mass concentration of particles derived from Lorenz-Mie calculation of OPC scattering (μg/m³)
DateTimeUTC,F1_M11,P_M11,Q1_M11,Q2_M11,T1_M11,T2_M11,T3_M11,T4_M11,T5_M11,U1_M11,ZSPAN_M11,X2_M11,X0_M11,X1_M11
2023-12-20 00:00:00,SystemResetWarning,0825.9,5.00,000.00,025.8,024.9,000.0,034.0,027.2,12.8,0000.0,0000.49,0001.40,0000.36
2023-12-20 00:01:00,SystemResetWarning,0825.9,5.01,000.00,025.8,024.9,000.0,034.0,027.3,12.8,0000.0,0000.44,0000.78,0000.35
2023-12-20 00:02:00,SystemResetWarning,0826.0,5.00,000.00,025.8,024.9,000.0,034.0,027.3,12.8,0000.0,0000.45,0000.73,0000.35
2023-12-20 00:03:00,SystemResetWarning,0826.0,5.00,000.00,025.8,024.9,000.0,034.1,027.3,12.8,0000.0,0000.44,0000.68,0000.35
2023-12-20 00:04:00,SystemResetWarning,0826.0,5.00,000.00,025.8,024.9,000.0,034.1,027.3,12.8,0000.0,0000.44,0000.68,0000.35
2023-12-20 00:05:00,SystemResetWarning,0826.0,5.00,000.00,025.8,024.9,000.0,034.1,027.3,12.7,0000.0,0000.45,0000.72,0000.35
2023-12-20 00:06:00,SystemResetWarning,0826.0,4.99,000.00,025.9,024.9,000.0,034.1,027.3,12.7,0000.0,0000.46,0000.74,0000.34
2023-12-20 00:07:00,SystemResetWarning,0826.0,4.99,000.00,025.9,024.9,000.0,034.1,027.3,12.8,0000.0,0000.46,0000.74,0000.34
2023-12-20 00:08:00,SystemResetWarning,0826.0,4.99,000.00,025.9,025.0,000.0,034.1,027.3,12.7,0000.0,0000.44,0000.67,0000.34
2023-12-20 00:09:00,SystemResetWarning,0826.0,5.00,000.00,025.9,025.0,000.0,034.1,027.3,12.7,0000.0,0000.46,0000.73,0000.33
2023-12-20 00:10:00,SystemResetWarning,0826.0,5.02,000.00,025.9,025.0,000.0,034.1,027.3,12.7,0000.0,0000.48,0000.77,0000.34
2023-12-20 00:11:00,SystemResetWarning,0826.1,4.99,000.00,025.9,025.0,000.0,034.1,027.3,12.7,0000.0,0000.51,0000.83,0000.35
2023-12-20 00:12:00,SystemResetWarning,0826.1,4.99,000.00,025.9,025.0,000.0,034.1,027.3,12.7,0000.0,0000.53,0000.88,0000.36
2023-12-20 00:13:00,SystemResetWarning,0826.1,5.01,000.00,025.9,025.0,000.0,034.1,027.4,12.7,0000.0,0000.51,0000.84,0000.35
2023-12-20 00:14:00,SystemResetWarning,0826.2,5.01,000.00,025.9,025.0,000.0,034.1,027.4,12.7,0000.0,0000.52,0000.86,0000.37
2023-12-20 00:15:00,SystemResetWarning,0826.2,5.00,000.00,025.9,025.0,000.0,034.2,027.3,12.7,0000.0,0000.54,0000.90,0000.37
2023-12-20 00:16:00,SystemResetWarning,0826.2,4.98,000.00,025.9,025.0,000.0,034.2,027.3,12.7,0000.0,0000.56,0000.96,0000.38
2023-12-20 00:17:00,SystemResetWarning,0826.2,5.01,000.00,025.9,025.0,000.0,034.2,027.3,12.7,0000.0,0000.57,0000.99,0000.39
2023-12-20 00:18:00,SystemResetWarning,0826.2,5.01,000.00,025.9,025.0,000.0,034.2,027.4,12.8,0000.0,0000.58,0000.99,0000.40
2023-12-20 00:19:00,SystemResetWarning,0826.2,5.00,000.00,025.9,025.0,000.0,034.2,027.4,12.8,0000.0,0000.60,0001.06,0000.40
2023-12-20 00:20:00,SystemResetWarning,0826.2,4.99,000.00,025.9,025.0,000.0,034.2,027.4,12.8,0000.0,0000.58,0000.99,0000.40
2023-12-20 00:21:00,SystemResetWarning,0826.3,5.00,000.00,025.9,025.0,000.0,034.2,027.4,12.8,0000.0,0000.56,0000.95,0000.40
2023-12-20 00:22:00,SystemResetWarning,0826.2,5.00,000.00,025.9,025.0,000.0,034.2,027.4,12.8,0000.0,0000.59,0001.04,0000.39
2023-12-20 00:23:00,SystemResetWarning,0826.3,5.02,000.00,025.9,025.0,000.0,034.2,027.4,12.6,0000.0,0000.61,0001.11,0000.39
2023-12-20 00:24:00,SystemResetWarning,0826.3,4.99,000.00,025.9,025.0,000.0,034.2,027.4,12.4,0000.0,0000.66,0001.29,0000.39
2023-12-20 00:25:00,SystemResetWarning,0826.3,4.99,000.00,026.0,025.0,000.0,034.2,027.4,12.4,0000.0,0000.69,0001.37,0000.39
2023-12-20 00:26:00,SystemResetWarning,0826.3,5.01,000.00,026.0,025.0,000.0,034.2,027.4,12.5,0000.0,0000.69,0001.35,0000.38
2023-12-20 00:27:00,SystemResetWarning,0826.3,4.99,000.00,026.0,025.1,000.0,034.2,027.4,12.4,0000.0,0000.68,0001.35,0000.38
2023-12-20 00:28:00,SystemResetWarning,0826.3,5.01,000.00,026.0,025.1,000.0,034.2,027.4,12.4,0000.0,0000.71,0001.42,0000.38
2023-12-20 00:29:00,SystemResetWarning,0826.3,5.00,000.00,026.0,025.1,000.0,034.2,027.4,12.4,0000.0,0000.72,0001.44,0000.38
2023-12-20 00:30:00,SystemResetWarning,0826.3,4.99,000.00,026.0,025.1,000.0,034.2,027.4,12.4,0000.0,0000.70,0001.35,0000.38
2023-12-20 00:31:00,SystemResetWarning,0826.3,4.99,000.00,026.0,025.1,000.0,034.2,027.4,12.4,0000.0,0000.71,0001.39,0000.38
2023-12-20 00:32:00,SystemResetWarning,0826.3,5.00,000.00,026.0,025.1,000.0,034.2,027.5,12.4,0000.0,0000.76,0001.51,0000.38
2023-12-20 00:33:00,SystemResetWarning,0826.3,5.00,000.00,026.0,025.1,000.0,034.2,027.5,12.4,0000.0,0000.75,0001.54,0000.38
2023-12-20 00:34:00,SystemResetWarning,0826.3,5.02,000.00,026.0,025.1,000.0,034.3,027.4,12.4,0000.0,0000.75,0001.59,0000.39
2023-12-20 00:35:00,SystemResetWarning,0826.3,4.99,000.00,026.0,025.0,000.0,034.3,027.4,12.4,0000.0,0000.72,0001.41,0000.39
2023-12-20 00:36:00,SystemResetWarning,0826.3,5.00,000.00,026.0,025.1,000.0,034.3,027.4,12.5,0000.0,0000.71,0001.39,0000.38
2023-12-20 00:37:00,SystemResetWarning,0826.4,5.00,000.00,026.0,025.1,000.0,034.3,027.4,12.5,0000.0,0000.69,0001.38,0000.38
2023-12-20 00:38:00,SystemResetWarning,0826.4,5.01,000.00,026.0,025.1,000.0,034.3,027.4,12.4,0000.0,0000.72,0001.42,0000.38
2023-12-20 00:39:00,SystemResetWarning,0826.4,4.98,000.00,026.0,025.1,000.0,034.3,027.4,12.3,0000.0,0000.68,0001.26,0000.38
2023-12-20 00:40:00,SystemResetWarning,0826.4,4.99,000.00,026.0,025.1,000.0,034.3,027.4,12.3,0000.0,0000.64,0001.21,0000.37
2023-12-20 00:41:00,SystemResetWarning,0826.4,5.01,000.00,026.0,025.1,000.0,034.3,027.4,12.3,0000.0,0000.66,0001.26,0000.37
2023-12-20 00:42:00,SystemResetWarning,0826.3,5.01,000.00,026.0,025.1,000.0,034.3,027.4,12.4,0000.0,0000.67,0001.30,0000.37
2023-12-20 00:43:00,SystemResetWarning,0826.4,4.99,000.00,026.0,025.1,000.0,034.3,027.4,12.4,0000.0,0000.68,0001.65,0000.37
2023-12-20 00:44:00,SystemResetWarning,0826.4,4.99,000.00,026.0,025.1,000.0,034.3,027.4,12.5,0000.0,0000.68,0001.73,0000.36
2023-12-20 00:45:00,SystemResetWarning,0826.3,5.01,000.00,026.0,025.1,000.0,034.3,027.4,12.6,0000.0,0000.64,0001.59,0000.35
2023-12-20 00:46:00,SystemResetWarning,0826.4,5.01,000.00,026.0,025.1,000.0,034.3,027.4,12.6,0000.0,0000.62,0001.54,0000.36
2023-12-20 00:47:00,SystemResetWarning,0826.4,4.99,000.00,026.0,025.1,000.0,034.3,027.4,12.6,0000.0,0000.60,0001.50,0000.36
2023-12-20 00:48:00,SystemResetWarning,0826.4,4.99,000.00,026.0,025.1,000.0,034.3,027.4,12.6,0000.0,0000.61,0001.60,0000.37
2023-12-20 00:49:00,SystemResetWarning,0826.4,5.02,000.00,026.0,025.0,000.0,034.3,027.4,12.6,0000.0,0000.57,0001.82,0000.36
2023-12-20 00:50:00,SystemResetWarning,0826.4,4.99,000.00,026.0,025.0,000.0,034.3,027.4,12.6,0000.0,0000.62,0002.19,0000.37
2023-12-20 00:51:00,SystemResetWarning,0826.5,4.99,000.00,026.0,025.0,000.0,034.3,027.3,12.7,0000.0,0000.64,0002.51,0000.37
2023-12-20 00:52:00,SystemResetWarning,0826.5,4.99,000.00,026.0,025.0,000.0,034.3,027.4,12.7,0000.0,0000.64,0002.50,0000.37
2023-12-20 00:53:00,SystemResetWarning,0826.4,5.02,000.00,026.0,025.0,000.0,034.3,027.4,12.6,0000.0,0000.65,0003.41,0000.38
2023-12-20 00:54:00,SystemResetWarning,0826.5,5.00,000.00,026.0,025.0,000.0,034.3,027.4,12.7,0000.0,0000.63,0003.82,0000.38
2023-12-20 00:55:00,SystemResetWarning,0826.5,4.99,000.00,026.0,025.0,000.0,034.3,027.4,12.7,0000.0,0000.60,0003.60,0000.39
2023-12-20 00:56:00,SystemResetWarning,0826.5,5.01,000.00,026.0,025.0,000.0,034.3,027.4,12.6,0000.0,0000.61,0003.63,0000.40
2023-12-20 00:57:00,SystemResetWarning,0826.6,5.00,000.00,026.0,025.0,000.0,034.3,027.4,12.7,0000.0,0000.63,0003.68,0000.40
2023-12-20 00:58:00,SystemResetWarning,0826.5,4.99,000.00,026.0,025.0,000.0,034.3,027.4,12.6,0000.0,0000.65,0003.70,0000.40
2023-12-20 00:59:00,SystemResetWarning,0826.5,5.02,000.00,026.0,025.0,000.0,034.3,027.4,12.6,0000.0,0000.68,0003.81,0000.42
